This is the latest recevied weather packets stored in our database for station/object KC3AWA. If no packets are shown the sender has not sent any weather packets the latest 10 day(s).
| Time | Temp. | Humidity | Pressure | Rain* | Wind** | Luminosity | Snow |
|---|---|---|---|---|---|---|---|
| 1778103211 | 10° C | 52% | 1012.5 hPa | 0 mm | - | 96 W/m² | - |
| 1778102908 | 10° C | 53% | 1012.4 hPa | 0 mm | - | 118 W/m² | - |
| 1778102603 | 10.56° C | 53% | 1012.2 hPa | 0 mm | - | 113 W/m² | - |
| 1778102299 | 10.56° C | 53% | 1012.2 hPa | 0 mm | - | 76 W/m² | - |
| 1778101995 | 10.56° C | 54% | 1012.4 hPa | 0 mm | - | 92 W/m² | - |
| 1778101693 | 10.56° C | 56% | 1012.3 hPa | 0 mm | - | 109 W/m² | - |
| 1778101389 | 10.56° C | 51% | 1012.3 hPa | 0 mm | - | 115 W/m² | - |
| 1778101086 | 11.11° C | 49% | 1012.1 hPa | 0 mm | - | 120 W/m² | - |
| 1778100782 | 11.11° C | 55% | 1011.9 hPa | 0 mm | - | 173 W/m² | - |
| 1778100479 | 11.11° C | 57% | 1012 hPa | 0 mm | - | 301 W/m² | - |
| 1778100177 | 11.11° C | 54% | 1011.9 hPa | 0 mm | - | 329 W/m² | - |
| 1778099874 | 10.56° C | 55% | 1011.7 hPa | 0 mm | - | 230 W/m² | - |
| 1778099571 | 10.56° C | 58% | 1011.8 hPa | 0 mm | - | 192 W/m² | - |
| 1778099268 | 10.56° C | 53% | 1011.7 hPa | 0 mm | - | 159 W/m² | - |
| 1778098965 | 10.56° C | 55% | 1012 hPa | 0 mm | - | 118 W/m² | - |
| 1778098661 | 10.56° C | 56% | 1011.6 hPa | 0 mm | - | 128 W/m² | - |
| 1778098358 | 11.11° C | 54% | 1011.8 hPa | 0 mm | - | 129 W/m² | - |
| 1778098055 | 11.11° C | 54% | 1011.8 hPa | 0 mm | - | 143 W/m² | - |
| 1778097752 | 11.67° C | 54% | 1011.9 hPa | 0 mm | - | 153 W/m² | - |
| 1778097448 | 11.67° C | 55% | 1012.1 hPa | 0 mm | - | 208 W/m² | - |
| 1778097145 | 12.22° C | 54% | 1012 hPa | 0 mm | - | 245 W/m² | - |
| 1778096842 | 12.22° C | 60% | 1012 hPa | 0 mm | - | 258 W/m² | - |
| 1778096538 | 11.67° C | 61% | 1011.7 hPa | 0 mm | - | 302 W/m² | - |
| 1778096236 | 12.22° C | 60% | 1011.8 hPa | 0 mm | - | 233 W/m² | - |
| 1778095933 | 12.22° C | 62% | 1011.7 hPa | 0 mm | - | 308 W/m² | - |
* Rain latest hour (hover to see other rain measurements)
** Current wind speed in m/s (hover to see current wind gust speed)